Date String (YYYY-MM-DD hh:mm:ss) UTC,Instrument flags,Ambient pressure (hPa),Sample flow (lpm),Bypass flow (lpm),Sample temperature (°C),Ambient temperature (°C),ASC tube jacket temperature (°C),LED temperature (°C),Box temperature (°C),Sample RH (%),Span deviation,Mass concentration (μg/m³),Mass concentration (μg/m³),Mass concentration (μg/m³)
DateTimeUTC,F1_M11,P_M11,Q1_M11,Q2_M11,T1_M11,T2_M11,T3_M11,T4_M11,T5_M11,U1_M11,ZSPAN_M11,X0_M11,X2_M11,X1_M11
2022-06-21 09:00:00,,0832.6,5.00,0.00,28.8,27.7,00.0,37.9,30.5,15.1,0000.0,0011.46,0004.12,0001.61
2022-06-21 09:01:00,,0832.6,5.00,0.00,28.8,27.7,00.0,37.8,30.5,15.2,0000.0,0011.50,0004.08,0001.62
2022-06-21 09:02:00,,0832.6,5.00,0.00,28.8,27.7,00.0,37.8,30.5,15.2,0000.0,0011.47,0004.06,0001.65
2022-06-21 09:03:00,,0832.6,4.99,0.00,28.8,27.7,00.0,37.8,30.5,15.2,0000.0,0011.32,0004.04,0001.65
2022-06-21 09:04:00,,0832.6,4.99,0.00,28.8,27.7,00.0,37.8,30.5,15.2,0000.0,0011.30,0004.03,0001.65
2022-06-21 09:05:00,,0832.6,5.01,0.00,28.8,27.7,00.0,37.8,30.5,15.2,0000.0,0011.36,0004.04,0001.64
2022-06-21 09:06:00,,0832.6,4.99,0.00,28.8,27.6,00.0,37.8,30.4,15.3,0000.0,0011.27,0004.06,0001.64
2022-06-21 09:07:00,,0832.6,5.00,0.00,28.7,27.6,00.0,37.8,30.4,15.3,0000.0,0010.85,0004.08,0001.65
2022-06-21 09:08:00,,0832.6,5.00,0.00,28.7,27.6,00.0,37.8,30.4,15.3,0000.0,0010.73,0004.08,0001.67
2022-06-21 09:09:00,,0832.6,5.01,0.00,28.7,27.6,00.0,37.8,30.4,15.3,0000.0,0010.67,0004.05,0001.68
2022-06-21 09:10:00,,0832.6,5.00,0.00,28.7,27.6,00.0,37.7,30.4,15.3,0000.0,0010.22,0004.04,0001.69
2022-06-21 09:11:00,,0832.6,4.99,0.00,28.7,27.6,00.0,37.7,30.4,15.4,0000.0,0009.65,0004.02,0001.70
2022-06-21 09:12:00,,0832.6,4.99,0.00,28.7,27.5,00.0,37.7,30.3,15.4,0000.0,0009.38,0004.01,0001.71
2022-06-21 09:13:00,,0832.6,5.00,0.00,28.7,27.5,00.0,37.7,30.3,15.4,0000.0,0009.21,0003.97,0001.67
2022-06-21 09:14:00,,0832.7,5.00,0.00,28.7,27.5,00.0,37.7,30.3,15.4,0000.0,0009.07,0003.93,0001.64
2022-06-21 09:15:00,,0832.6,5.00,0.00,28.7,27.5,00.0,37.7,30.4,15.4,0000.0,0009.07,0003.93,0001.63
2022-06-21 09:16:00,,0832.7,4.99,0.00,28.7,27.5,00.0,37.7,30.4,15.4,0000.0,0009.10,0003.87,0001.62
2022-06-21 09:17:00,,0832.7,5.00,0.00,28.6,27.5,00.0,37.7,30.4,15.5,0000.0,0009.08,0003.84,0001.60
2022-06-21 09:18:00,,0832.7,5.00,0.00,28.6,27.5,00.0,37.6,30.3,15.5,0000.0,0009.04,0003.75,0001.58
2022-06-21 09:19:00,,0832.7,5.00,0.00,28.6,27.5,00.0,37.6,30.3,15.5,0000.0,0009.45,0003.77,0001.55
2022-06-21 09:20:00,,0832.7,5.01,0.00,28.6,27.5,00.0,37.6,30.3,15.5,0000.0,0009.53,0003.79,0001.53
2022-06-21 09:21:00,,0832.7,4.99,0.00,28.6,27.5,00.0,37.6,30.3,15.6,0000.0,0009.55,0003.77,0001.51
2022-06-21 09:22:00,,0832.7,5.00,0.00,28.6,27.5,00.0,37.6,30.3,15.6,0000.0,0009.76,0003.80,0001.47
2022-06-21 09:23:00,,0832.7,5.01,0.00,28.6,27.5,00.0,37.6,30.3,15.6,0000.0,0009.86,0003.85,0001.44
2022-06-21 09:24:00,,0832.7,5.00,0.00,28.6,27.5,00.0,37.6,30.3,15.7,0000.0,0010.00,0003.87,0001.44
2022-06-21 09:25:00,,0832.7,4.99,0.00,28.6,27.5,00.0,37.6,30.3,15.8,0000.0,0010.67,0003.88,0001.45
2022-06-21 09:26:00,,0832.7,5.01,0.00,28.6,27.5,00.0,37.6,30.2,15.8,0000.0,0011.10,0003.85,0001.44
2022-06-21 09:27:00,,0832.7,4.99,0.00,28.6,27.4,00.0,37.6,30.2,15.9,0000.0,0011.18,0003.91,0001.43
2022-06-21 09:28:00,,0832.7,5.00,0.00,28.5,27.4,00.0,37.6,30.2,16.0,0000.0,0011.11,0003.89,0001.44
2022-06-21 09:29:00,,0832.7,5.01,0.00,28.5,27.4,00.0,37.5,30.2,16.0,0000.0,0011.15,0003.92,0001.43
2022-06-21 09:30:00,,0832.7,5.00,0.00,28.5,27.4,00.0,37.5,30.2,16.0,0000.0,0010.95,0003.86,0001.43
2022-06-21 09:31:00,,0832.7,5.00,0.00,28.5,27.4,00.0,37.5,30.2,16.0,0000.0,0010.80,0003.80,0001.43
2022-06-21 09:32:00,,0832.7,5.00,0.00,28.5,27.4,00.0,37.5,30.2,16.1,0000.0,0010.79,0003.81,0001.44
2022-06-21 09:33:00,,0832.6,5.01,0.00,28.5,27.3,00.0,37.5,30.2,16.1,0000.0,0011.37,0003.79,0001.45
2022-06-21 09:34:00,,0832.7,5.01,0.00,28.5,27.3,00.0,37.5,30.1,16.1,0000.0,0011.52,0003.73,0001.46
2022-06-21 09:35:00,,0832.7,4.99,0.00,28.4,27.3,00.0,37.5,30.1,16.2,0000.0,0011.64,0003.78,0001.48
2022-06-21 09:36:00,,0832.7,5.01,0.00,28.4,27.3,00.0,37.5,30.1,16.2,0000.0,0011.13,0003.75,0001.47
2022-06-21 09:37:00,,0832.7,4.99,0.00,28.4,27.3,00.0,37.4,30.1,16.2,0000.0,0010.81,0003.78,0001.46
2022-06-21 09:38:00,,0832.7,5.00,0.00,28.4,27.3,00.0,37.4,30.1,16.1,0000.0,0010.85,0003.72,0001.46
2022-06-21 09:39:00,,0832.7,5.01,0.00,28.4,27.3,00.0,37.4,30.2,16.1,0000.0,0011.04,0003.74,0001.47
2022-06-21 09:40:00,,0832.7,4.99,0.00,28.4,27.3,00.0,37.4,30.1,16.1,0000.0,0011.47,0003.79,0001.48
2022-06-21 09:41:00,,0832.8,5.01,0.00,28.4,27.3,00.0,37.4,30.1,16.0,0000.0,0011.20,0003.74,0001.49
2022-06-21 09:42:00,,0832.8,5.00,0.00,28.4,27.3,00.0,37.4,30.1,16.0,0000.0,0011.23,0003.72,0001.48
2022-06-21 09:43:00,,0832.7,5.01,0.00,28.4,27.3,00.0,37.4,30.1,15.9,0000.0,0011.29,0003.70,0001.47
2022-06-21 09:44:00,,0832.8,4.99,0.00,28.4,27.3,00.0,37.4,30.1,15.9,0000.0,0010.87,0003.73,0001.47
2022-06-21 09:45:00,,0832.8,5.01,0.00,28.4,27.3,00.0,37.4,30.1,15.8,0000.0,0010.74,0003.74,0001.47
2022-06-21 09:46:00,,0832.8,5.01,0.00,28.4,27.3,00.0,37.4,30.1,15.8,0000.0,0010.41,0003.69,0001.45
2022-06-21 09:47:00,,0832.8,4.99,0.00,28.4,27.3,00.0,37.4,30.1,15.8,0000.0,0010.28,0003.70,0001.45
2022-06-21 09:48:00,,0832.8,5.00,0.00,28.4,27.3,00.0,37.4,30.1,15.8,0000.0,0010.24,0003.68,0001.47
2022-06-21 09:49:00,,0832.7,5.00,0.00,28.4,27.3,00.0,37.3,30.1,15.8,0000.0,0009.87,0003.63,0001.47
2022-06-21 09:50:00,,0832.8,4.99,0.00,28.4,27.3,00.0,37.3,30.1,15.8,0000.0,0010.10,0003.72,0001.47
2022-06-21 09:51:00,,0832.8,5.00,0.00,28.4,27.3,00.0,37.3,30.1,15.8,0000.0,0009.97,0003.63,0001.45
2022-06-21 09:52:00,,0832.8,5.00,0.00,28.4,27.3,00.0,37.3,30.1,15.8,0000.0,0009.69,0003.61,0001.43
2022-06-21 09:53:00,,0832.8,5.00,0.00,28.3,27.2,00.0,37.3,30.1,15.9,0000.0,0010.64,0003.67,0001.43
2022-06-21 09:54:00,,0832.8,4.99,0.00,28.3,27.2,00.0,37.3,30.1,15.9,0000.0,0011.20,0003.72,0001.44
2022-06-21 09:55:00,,0832.8,5.01,0.00,28.3,27.2,00.0,37.3,30.1,15.9,0000.0,0011.46,0003.71,0001.43
2022-06-21 09:56:00,,0832.9,5.00,0.00,28.3,27.2,00.0,37.3,30.0,15.9,0000.0,0011.48,0003.72,0001.44
2022-06-21 09:57:00,,0832.8,5.00,0.00,28.3,27.2,00.0,37.3,30.0,15.9,0000.0,0011.45,0003.73,0001.45
2022-06-21 09:58:00,,0832.8,5.00,0.00,28.3,27.2,00.0,37.3,30.0,16.0,0000.0,0011.50,0003.77,0001.45
2022-06-21 09:59:00,,0832.8,5.00,0.00,28.3,27.2,00.0,37.3,30.0,16.0,0000.0,0011.49,0003.78,0001.46
